[[{"header":{"parameterUnit":"m.s-1","parameterCategory":1,"la1":30.2991,"la2":30.254,"lo1":-89.0895,"lo2":-89.0444,"dy":0.0017,"dx":0.0017,"nx":28,"ny":28,"refTime":"2026-03-05T09:00:00:Z","depth":0,"parameterNumber":2,"parameterNumberName":"U-component_of_WINDS"},"data":[0,0,0,0,0,0,0,0,0,0,0,0,0,0,0,0,0,0,0,0,0,0,0,0,0,0,0,0,0,0,0,0,0,0,0,0,0,0,0,0,0,0,0,0,0,0,0,0,0,0,0,0,0,0,0,0,0,0,-5.6503,-5.6504,0,-5.6593,-5.6594,-5.6595,-5.6525,-5.6522,-5.6519,-5.6516,-5.6605,-5.661,-5.6615,0,0,0,0,0,0,0,0,0,0,0,0,0,-5.6268,-5.6272,-5.6503,-5.6504,-5.6505,-5.6593,-5.6594,-5.6596,-5.6525,-5.6522,-5.6518,-5.6515,-5.6603,-5.6609,-5.6616,0,0,0,0,0,0,0,0,0,0,0,0,0,-5.6365,-5.6274,-5.6503,-5.6481,-5.648,-5.6593,-5.6594,-5.6596,-5.6526,-5.6522,-5.6517,-5.6513,-5.6601,-5.6609,-5.6616,-5.6755,0,0,-5.664,-5.6644,0,0,0,0,0,0,0,0,-5.636,-5.6374,-5.6483,-5.6483,-5.6482,-5.6543,-5.6544,-5.6649,-5.6527,-5.6509,-5.6516,-5.6511,-5.6588,-5.6596,-5.6623,-5.6759,-5.6763,-5.6641,-5.6646,-5.6649,-5.6651,0,0,0,0,0,0,0,-5.6353,-5.637,-5.6538,-5.6485,-5.6484,-5.6466,-5.6475,-5.6564,-5.6572,-5.651,-5.6505,-5.6517,-5.6587,-5.6616,-5.6625,-5.6764,-5.6641,-5.6648,-5.6652,-5.6655,-5.7019,-5.7024,0,0,0,0,0,0,-5.6349,-5.6364,-5.6536,-5.6541,-5.6408,-5.6474,-5.6484,-5.6528,-5.6571,-5.6573,-5.6521,-5.6513,-5.6605,-5.6616,-5.6628,-5.6792,-5.6649,-5.6656,-5.6661,-5.7014,-5.702,-5.7025,0,0,0,0,0,0,-5.6344,-5.6365,-5.6532,-5.6452,-5.6472,-5.6483,-5.6533,-5.6532,-5.6561,-5.6579,-5.658,-5.6549,-5.6602,-5.6617,-5.6724,-5.6794,-5.666,-5.6667,-5.7008,-5.7016,-5.7023,-5.7122,0,0,0,0,0,0,-5.6338,-5.6363,-5.6416,-5.6453,-5.6476,-5.6628,-5.6537,-5.6537,-5.6575,-5.6566,-5.6606,-5.6608,-5.6599,-5.6713,-5.6732,-5.6802,-5.6673,-5.7002,-5.7011,-5.702,-5.7112,-5.7132,-5.7149,0,0,0,0,0,-5.6329,-5.6439,-5.6419,-5.644,-5.6542,-5.6632,-5.6645,-5.6633,-5.6581,-5.6634,-5.6646,-5.6607,-5.6785,-5.6725,-5.6745,-5.6819,-5.6997,-5.7009,-5.702,-5.7104,-5.7128,-5.7148,0,0,0,0,0,0,-5.6408,-5.6444,-5.6422,-5.6547,-5.6587,-5.662,-5.6685,-5.6658,-5.6713,-5.6702,-5.6685,-5.6694,-5.6807,-5.6824,-5.6757,-5.6956,-5.6882,-5.6898,-5.694,-5.6962,-5.698,-5.6972,-5.6679,0,0,0,0,0,-5.644,-5.6511,-5.6538,-5.6646,-5.6668,-5.6674,-5.6712,-5.67,-5.674,-5.6756,-5.6776,-5.6816,-5.688,-5.6923,-5.6983,-5.7116,-5.7123,-5.7177,-5.7195,-5.721,-5.7223,-5.7294,-5.7318,-5.7062,-5.7062,-5.7062,0,0,-5.6507,-5.6535,-5.658,-5.6663,-5.6692,-5.6765,-5.6688,-5.6768,-5.6821,-5.6768,-5.687,-5.6887,-5.693,-5.7051,-5.7105,-5.7069,-5.7296,-5.7225,-5.7236,-5.7241,-5.7308,-5.7332,-5.7354,-5.707,-5.7069,-5.7067,0,0,-5.6664,-5.6694,-5.6787,-5.6819,-5.6866,-5.687,-5.6893,-5.6931,-5.694,-5.7043,-5.7005,-5.7069,-5.7181,-5.7213,-5.7244,-5.7419,-5.7384,-5.7439,-5.7532,-5.7602,-5.7622,-5.764,-5.77,-5.7723,-5.7453,-5.7453,-5.7453,0,-5.674,-5.6848,-5.6838,-5.6921,-5.6958,-5.6917,-5.7011,-5.7043,-5.7106,-5.7133,-5.7092,-5.7233,-5.7259,-5.7387,-5.743,-5.7457,-5.7481,-5.7432,-5.762,-5.7638,-5.7654,-5.7712,-5.7735,-5.7459,-5.7459,-5.7458,-5.7457,0,-5.6939,-5.7015,-5.7085,-5.7149,-5.7195,-5.7284,-5.7286,-5.7334,-5.732,-5.7328,-5.7434,-5.7465,-5.7531,-5.7562,-5.7548,-5.7688,-5.7664,-5.7623,-5.7548,-5.7685,-5.7739,-5.7761,-5.7468,-5.7466,-5.7464,-5.7463,0,0,-5.7143,-5.7204,-5.7229,-5.7259,-5.7309,-5.7367,-5.7455,-5.7522,-5.7562,-5.7609,-5.7681,-5.7779,-5.7741,-5.7777,-5.7767,-5.7829,-5.7964,-5.7779,-5.778,-5.781,-5.8119,-5.8147,-5.8173,-5.7944,-5.7948,-5.7951,-5.8115,0,-5.7301,-5.7453,-5.7448,-5.759,-5.766,-5.7624,-5.77,-5.7739,-5.7751,-5.7812,-5.7824,-5.7893,-5.7839,-5.7861,-5.7921,-5.7935,-5.8025,-5.7923,-5.8008,-5.8011,-5.7994,-5.8202,-5.8231,-5.8384,-5.8136,-5.8139,-5.8142,0,-5.7504,-5.756,-5.7709,-5.7751,-5.778,-5.7849,-5.791,-5.797,-5.8014,-5.8018,-5.806,-5.8041,-5.8129,-5.8056,-5.8177,-5.8108,-5.8143,-5.8156,-5.8161,-5.8165,-5.8082,-5.8208,-5.8432,-5.8454,-5.8175,-5.8173,-5.817,0,-5.7635,-5.7748,-5.7852,-5.7878,-5.7931,-5.7979,-5.8003,-5.8044,-5.8085,-5.8139,-5.8165,-5.8229,-5.8263,-5.8313,-5.8311,-5.8258,-5.8433,-5.836,-5.8437,-5.8437,-5.8472,-5.8469,-5.8701,-5.8501,-5.8501,-5.85,-5.85,0,-5.7809,-5.7901,-5.7911,-5.7975,-5.8077,-5.8072,-5.8173,-5.8192,-5.8229,-5.8295,-5.827,-5.8332,-5.8328,-5.8392,-5.8392,-5.8491,-5.8507,-5.8512,-5.851,-5.8512,-5.8511,-5.8531,-5.8519,-5.8506,-5.8505,-5.8504,-5.8503,0,-5.797,-5.7981,-5.8092,-5.8134,-5.8147,-5.822,-5.8256,-5.8316,-5.8328,-5.8412,-5.8431,-5.8448,-5.8522,-5.8527,-5.8612,-5.8612,-5.8732,-5.872,-5.8717,-5.8713,-5.8789,-5.8781,-5.904,-5.9073,-5.8854,-5.8857,-5.8858,0,-5.8079,-5.8149,-5.82,-5.8244,-5.8271,-5.8341,-5.8384,-5.8383,-5.8428,-5.8486,-5.8539,-5.8611,-5.8668,-5.8788,-5.8806,-5.8872,-5.8859,-5.8946,-5.8868,-5.8868,-5.8857,-5.8851,-5.8858,-5.8959,-5.8961,-5.8963,-5.8965,0,-5.827,-5.8273,-5.8335,-5.8402,-5.8454,-5.8506,-5.8554,-5.8591,-5.8596,-5.8648,-5.8724,-5.8769,-5.8857,-5.8928,-5.8992,-5.9016,-5.8991,-5.8991,-5.9011,-5.9012,-5.9006,-5.9008,-5.8754,-5.8983,-5.8981,-5.898,-5.8979,-5.8978,-5.8405,-5.8467,-5.8513,-5.8584,-5.8622,-5.8668,-5.8727,-5.8747,-5.8811,-5.8883,-5.888,-5.8964,-5.9008,-5.9093,-5.9122,-5.9187,-5.9157,-5.9188,-5.9195,-5.9202,-5.9209,-5.9,-5.9199,-5.9199,-5.9198,-5.9198,-5.9198,0,-5.8592,-5.8622,-5.8688,-5.8757,-5.8814,-5.879,-5.8843,-5.8892,-5.8966,-5.9011,-5.9069,-5.9157,-5.9227,-5.9254,-5.9322,-5.9369,-5.9359,-5.9386,-5.938,-5.9386,-5.9233,-5.9206,-5.9393,-5.9393,-5.9393,-5.9393,-5.9393,-5.9393,-5.8696,-5.8798,-5.8807,-5.8927,-5.8956,-5.9039,-5.9071,-5.9114,-5.915,-5.925,-5.9308,-5.9327,-5.9364,-5.9436,-5.9499,-5.9505,-5.953,-5.9561,-5.9562,-5.9417,-5.9397,-5.9378,-5.9353,-5.9568,-5.9568,-5.971,-5.9711,-5.9712]},{"header":{"parameterUnit":"m.s-1","parameterCategory":1,"la1":30.2991,"la2":30.254,"lo1":-89.0895,"lo2":-89.0444,"dy":0.0017,"dx":0.0017,"nx":28,"ny":28,"refTime":"2026-03-05T09:00:00:Z","depth":0,"parameterNumber":3,"parameterNumberName":"V-component_of_WINDS"},"data":[0,0,0,0,0,0,0,0,0,0,0,0,0,0,0,0,0,0,0,0,0,0,0,0,0,0,0,0,0,0,0,0,0,0,0,0,0,0,0,0,0,0,0,0,0,0,0,0,0,0,0,0,0,0,0,0,0,0,2.1632,2.1633,0,2.1744,2.1745,2.1746,2.1793,2.1793,2.1792,2.1792,2.1902,2.1905,2.1908,0,0,0,0,0,0,0,0,0,0,0,0,0,2.1457,2.146,2.1632,2.1633,2.1635,2.1744,2.1745,2.1747,2.1793,2.1793,2.1792,2.1792,2.1901,2.1905,2.1908,0,0,0,0,0,0,0,0,0,0,0,0,0,2.1547,2.1461,2.1632,2.1671,2.1676,2.1743,2.1745,2.1747,2.1793,2.1792,2.1792,2.1792,2.19,2.1904,2.1909,2.1944,0,0,2.1923,2.1925,0,0,0,0,0,0,0,0,2.1542,2.1554,2.1664,2.1668,2.1674,2.1754,2.1724,2.1813,2.1793,2.1748,2.1792,2.1792,2.1853,2.1861,2.1883,2.195,2.1954,2.1924,2.1927,2.1929,2.193,0,0,0,0,0,0,0,2.1536,2.1549,2.1676,2.1665,2.1671,2.1683,2.1695,2.1741,2.1801,2.1752,2.1756,2.1769,2.1855,2.1878,2.1886,2.1956,2.1924,2.1928,2.1931,2.1932,2.2062,2.2063,0,0,0,0,0,0,2.1524,2.1544,2.1672,2.1679,2.1606,2.1686,2.17,2.1728,2.18,2.1811,2.1769,2.177,2.187,2.188,2.189,2.1939,2.1929,2.1933,2.1936,2.2061,2.2062,2.2063,0,0,0,0,0,0,2.152,2.1535,2.1668,2.1613,2.1631,2.169,2.1721,2.1731,2.1754,2.1813,2.1824,2.1781,2.187,2.1883,2.1932,2.1943,2.1935,2.1939,2.2061,2.2062,2.2062,2.2036,0,0,0,0,0,0,2.1514,2.1533,2.1547,2.1613,2.1633,2.1708,2.1722,2.1733,2.1762,2.1765,2.1828,2.1837,2.1871,2.1925,2.1937,2.195,2.1943,2.206,2.2061,2.2062,2.2036,2.2035,2.2035,0,0,0,0,0,2.1508,2.1533,2.1547,2.1562,2.1652,2.1709,2.172,2.176,2.1763,2.1778,2.1817,2.1835,2.194,2.1929,2.1943,2.1958,2.2059,2.2061,2.2062,2.2036,2.2035,2.2035,0,0,0,0,0,0,2.1464,2.1542,2.1559,2.1606,2.1651,2.1716,2.1736,2.1758,2.1801,2.1802,2.1848,2.1862,2.1908,2.1937,2.1924,2.1998,2.2001,2.2006,2.1977,2.1977,2.1977,2.1968,2.1947,0,0,0,0,0,2.146,2.15,2.1566,2.1601,2.1623,2.1676,2.1702,2.1729,2.1777,2.1795,2.1837,2.1882,2.1926,2.1953,2.1996,2.2041,2.2056,2.2058,2.2058,2.2057,2.206,2.209,2.2092,2.2067,2.2067,2.2067,0,0,2.1451,2.1499,2.1521,2.1593,2.1631,2.1672,2.1691,2.1732,2.1764,2.1801,2.1851,2.1884,2.1937,2.1985,2.2008,2.2011,2.2071,2.2059,2.2058,2.2062,2.2091,2.2094,2.2096,2.2068,2.2068,2.2068,0,0,2.1457,2.1496,2.1532,2.1571,2.163,2.1665,2.1674,2.1738,2.1762,2.1813,2.1844,2.1881,2.1954,2.1992,2.202,2.2046,2.2066,2.2059,2.2058,2.2086,2.2088,2.209,2.2101,2.2104,2.2062,2.2062,2.2062,0,2.1438,2.1502,2.1547,2.1588,2.162,2.166,2.1697,2.1732,2.18,2.1822,2.1825,2.1921,2.1959,2.2018,2.2025,2.2046,2.2058,2.2052,2.2084,2.2087,2.2089,2.21,2.2104,2.2061,2.2061,2.2061,2.2061,0,2.1478,2.1522,2.1543,2.1612,2.1647,2.1685,2.1737,2.1766,2.1792,2.1827,2.1881,2.1929,2.1984,2.2,2.2023,2.2064,2.2065,2.2075,2.208,2.209,2.2101,2.2105,2.2059,2.2059,2.206,2.206,0,0,2.1455,2.1552,2.1559,2.1593,2.1663,2.1698,2.174,2.1796,2.1822,2.1869,2.1906,2.197,2.1982,2.2014,2.2043,2.2068,2.2089,2.2076,2.2078,2.2078,2.2139,2.2131,2.2135,2.2103,2.2104,2.2105,2.2135,0,2.1471,2.1549,2.1593,2.1653,2.1696,2.1736,2.1773,2.182,2.1855,2.1897,2.1936,2.1981,2.1992,2.2013,2.2039,2.208,2.2102,2.2079,2.2138,2.214,2.2124,2.2141,2.2131,2.2158,2.214,2.214,2.2141,0,2.1499,2.155,2.1615,2.1684,2.1704,2.1736,2.1794,2.1833,2.1888,2.1912,2.1952,2.1982,2.2028,2.203,2.2096,2.208,2.2107,2.2131,2.2133,2.214,2.2141,2.2149,2.2167,2.2171,2.2148,2.2147,2.2147,0,2.1479,2.1563,2.1614,2.1641,2.1722,2.1745,2.178,2.1835,2.1868,2.1918,2.194,2.1994,2.2024,2.2065,2.2109,2.2106,2.2172,2.2176,2.2194,2.2193,2.2205,2.2204,2.2228,2.2221,2.2221,2.2221,2.2221,0,2.1492,2.1531,2.1606,2.1637,2.1683,2.1733,2.1777,2.1815,2.1864,2.1904,2.1942,2.1978,2.2034,2.2078,2.2112,2.2163,2.2176,2.2197,2.2206,2.2194,2.2192,2.2212,2.2212,2.2222,2.2222,2.2222,2.2222,0,2.1476,2.1528,2.1587,2.1661,2.1681,2.1711,2.1775,2.1807,2.1846,2.1897,2.1911,2.1972,2.2026,2.2075,2.2145,2.2169,2.2221,2.2232,2.2203,2.2208,2.2223,2.2222,2.2262,2.2271,2.2257,2.2257,2.2257,0,2.1481,2.1513,2.1592,2.1623,2.1658,2.1706,2.1741,2.1793,2.1828,2.1897,2.1921,2.1979,2.2027,2.2111,2.2162,2.2217,2.2229,2.224,2.2238,2.2226,2.2232,2.2229,2.2234,2.2239,2.2239,2.2239,2.2239,0,2.1486,2.1512,2.1561,2.1622,2.1663,2.1712,2.1762,2.1785,2.1847,2.1885,2.1942,2.198,2.2055,2.2111,2.2173,2.2209,2.2235,2.224,2.2247,2.2235,2.2218,2.223,2.2203,2.2238,2.2238,2.2238,2.2238,2.2238,2.1482,2.1513,2.1576,2.1631,2.1675,2.1723,2.1758,2.1804,2.1853,2.192,2.1947,2.2006,2.2064,2.2151,2.2187,2.2233,2.2238,2.2248,2.2251,2.2253,2.2252,2.2211,2.2245,2.2245,2.2245,2.2245,2.2245,0,2.149,2.1534,2.1584,2.1656,2.17,2.1724,2.1782,2.1817,2.1869,2.1922,2.1971,2.2038,2.2095,2.2151,2.2211,2.2238,2.2252,2.2252,2.2251,2.2259,2.2243,2.2231,2.224,2.224,2.224,2.224,2.224,2.224,2.1499,2.1555,2.1589,2.1667,2.171,2.177,2.1802,2.1846,2.189,2.1964,2.2013,2.205,2.2106,2.2171,2.2225,2.224,2.2261,2.2258,2.2276,2.226,2.226,2.2259,2.2249,2.2262,2.2262,2.2289,2.229,2.229]}]]